RYR604 EGAA-EGJJ

Flight info

Callsign RYR604
Flight time 1h 5m
Altitude 37000
Route LISBO DCT RINGA Q39 ETIGA DCT INKOB Q39 NOMSU UQ4 WAL N862 KARNO DCT ALHUP DCT ABWIV DCT PACSE DCT DAWLY N864 ABBEW N90 ENHEL N862 SKERY
Aircraft B738/M-SDE2E3FGHIRWXY/LB1

Departure

Time 2026-01-18 04:13
Airport Belfast International Airport (EGAA)

Arrival

Time 2026-01-18 05:18
Airport Jersey Airport (EGJJ)
Time Latitude Longitude Altitude Speed Heading
2026-01-18 03:56 54.65953 -6.21772 271 ft 0 kts 278°
2026-01-18 04:03 54.65945 -6.21660 271 ft 3 kts 276°
2026-01-18 04:03 54.65943 -6.21625 271 ft 3 kts 276°
2026-01-18 04:04 54.65937 -6.21523 271 ft 3 kts 255°
2026-01-18 04:05 54.65959 -6.21471 271 ft 5 kts 231°
2026-01-18 04:07 54.65927 -6.21597 271 ft 15 kts 245°
2026-01-18 04:07 54.65831 -6.21958 273 ft 19 kts 245°
2026-01-18 04:08 54.65747 -6.22583 271 ft 17 kts 263°
2026-01-18 04:09 54.65688 -6.22955 271 ft 16 kts 233°
2026-01-18 04:09 54.65564 -6.23247 271 ft 14 kts 233°
2026-01-18 04:10 54.65413 -6.23401 271 ft 12 kts 201°
2026-01-18 04:10 54.65293 -6.23279 271 ft 7 kts 82°
2026-01-18 04:11 54.65362 -6.23022 271 ft 53 kts 65°
2026-01-18 04:11 54.65616 -6.22077 273 ft 118 kts 65°
2026-01-18 04:11 54.66535 -6.18729 1038 ft 170 kts 64°
2026-01-18 04:12 54.67759 -6.12645 2846 ft 191 kts 105°
2026-01-18 04:13 54.65898 -6.09078 3525 ft 227 kts 157°
2026-01-18 04:13 54.63150 -6.06005 4657 ft 247 kts 132°
2026-01-18 04:14 54.61048 -6.00912 5915 ft 247 kts 128°
2026-01-18 04:14 54.59012 -5.96466 7908 ft 239 kts 130°
2026-01-18 04:14 54.57947 -5.94197 8344 ft 254 kts 131°
2026-01-18 04:15 54.54480 -5.86958 10297 ft 271 kts 130°
2026-01-18 04:15 54.53242 -5.84320 10442 ft 294 kts 130°
2026-01-18 04:16 54.48909 -5.75375 10978 ft 351 kts 131°
2026-01-18 04:17 54.45687 -5.68876 12091 ft 361 kts 132°
2026-01-18 04:17 54.42388 -5.62269 13312 ft 368 kts 132°
2026-01-18 04:17 54.40710 -5.58920 13937 ft 372 kts 132°
2026-01-18 04:18 54.37538 -5.51797 15236 ft 378 kts 126°
2026-01-18 04:19 54.33069 -5.40436 17134 ft 388 kts 126°
2026-01-18 04:19 54.29979 -5.32764 18335 ft 395 kts 127°
2026-01-18 04:19 54.28409 -5.28899 18930 ft 396 kts 128°
2026-01-18 04:20 54.23239 -5.17770 20490 ft 402 kts 133°
2026-01-18 04:21 54.19622 -5.10391 21503 ft 408 kts 133°
2026-01-18 04:21 54.15972 -5.02887 22463 ft 414 kts 132°
2026-01-18 04:22 54.12307 -4.95334 23343 ft 420 kts 133°
2026-01-18 04:22 54.08585 -4.87678 24066 ft 426 kts 133°
2026-01-18 04:23 54.04773 -4.79867 24712 ft 432 kts 133°
2026-01-18 04:25 53.89978 -4.46801 27300 ft 450 kts 130°
2026-01-18 04:27 53.75448 -4.11964 30483 ft 445 kts 128°
2026-01-18 04:29 53.61077 -3.77336 32406 ft 456 kts 127°
2026-01-18 04:31 53.46542 -3.42444 34462 ft 459 kts 121°
2026-01-18 04:33 53.32909 -3.08109 36155 ft 452 kts 156°
2026-01-18 04:35 53.10187 -2.90449 37061 ft 457 kts 163°
2026-01-18 04:37 52.85074 -2.90620 37069 ft 453 kts 189°
2026-01-18 04:39 52.60074 -2.95136 37078 ft 452 kts 183°
2026-01-18 04:41 52.36072 -2.96999 37087 ft 449 kts 184°
2026-01-18 04:42 52.14026 -2.98800 37092 ft 457 kts 184°
2026-01-18 04:45 51.85356 -3.01330 37191 ft 458 kts 188°
2026-01-18 04:46 51.63329 -3.06052 37194 ft 456 kts 188°
2026-01-18 04:49 51.35072 -3.12217 37122 ft 454 kts 195°
2026-01-18 04:51 51.10657 -3.23243 37096 ft 460 kts 197°
2026-01-18 04:53 50.85793 -3.34118 36614 ft 473 kts 197°
2026-01-18 04:55 50.61255 -3.44739 32436 ft 433 kts 196°
2026-01-18 04:57 50.39070 -3.38437 27127 ft 423 kts 157°
2026-01-18 04:58 50.28866 -3.30234 24655 ft 403 kts 157°
2026-01-18 04:58 50.26385 -3.28249 24056 ft 399 kts 157°
2026-01-18 04:58 50.21366 -3.24930 22714 ft 386 kts 169°
2026-01-18 04:59 50.13582 -3.22209 20568 ft 379 kts 169°
2026-01-18 04:59 50.11015 -3.21283 19845 ft 379 kts 169°
2026-01-18 05:00 50.03376 -3.18515 17768 ft 376 kts 168°
2026-01-18 05:01 49.98537 -3.15826 16577 ft 371 kts 153°
2026-01-18 05:01 49.94241 -3.11486 15491 ft 364 kts 148°
2026-01-18 05:02 49.90060 -3.07168 14434 ft 358 kts 149°
2026-01-18 05:02 49.85939 -3.02947 13341 ft 352 kts 148°
2026-01-18 05:03 49.81882 -2.98815 12285 ft 346 kts 148°
2026-01-18 05:03 49.77894 -2.94766 11265 ft 340 kts 148°
2026-01-18 05:03 49.75946 -2.92790 11087 ft 328 kts 148°
2026-01-18 05:04 49.70503 -2.87279 10663 ft 295 kts 148°
2026-01-18 05:05 49.67175 -2.83920 10424 ft 277 kts 147°
2026-01-18 05:05 49.64048 -2.80769 10189 ft 260 kts 147°
2026-01-18 05:06 49.61101 -2.77803 9862 ft 249 kts 147°
2026-01-18 05:06 49.58243 -2.74931 9345 ft 245 kts 147°
2026-01-18 05:07 49.55409 -2.72087 8830 ft 242 kts 147°
2026-01-18 05:07 49.52608 -2.69279 8322 ft 238 kts 147°
2026-01-18 05:07 49.51224 -2.67893 8066 ft 237 kts 147°
2026-01-18 05:08 49.47031 -2.63699 7322 ft 248 kts 146°
2026-01-18 05:09 49.44096 -2.60771 6778 ft 252 kts 146°
2026-01-18 05:09 49.41011 -2.58220 6226 ft 252 kts 153°
2026-01-18 05:10 49.37890 -2.55874 5667 ft 245 kts 152°
2026-01-18 05:10 49.34933 -2.53630 5158 ft 230 kts 152°
2026-01-18 05:10 49.33529 -2.52557 5051 ft 221 kts 151°
2026-01-18 05:11 49.29635 -2.49579 4736 ft 195 kts 151°
2026-01-18 05:11 49.28423 -2.48651 4656 ft 198 kts 151°
2026-01-18 05:12 49.24222 -2.46879 4026 ft 216 kts 170°
2026-01-18 05:13 49.21304 -2.46334 3579 ft 203 kts 169°
2026-01-18 05:13 49.19957 -2.45906 3364 ft 193 kts 149°
2026-01-18 05:14 49.19114 -2.40889 2792 ft 166 kts 86°
2026-01-18 05:14 49.19326 -2.37495 2466 ft 150 kts 84°
2026-01-18 05:15 49.19573 -2.34377 2087 ft 146 kts 83°
2026-01-18 05:15 49.19698 -2.32839 1897 ft 146 kts 83°
2026-01-18 05:16 49.19949 -2.29781 1503 ft 143 kts 83°
2026-01-18 05:16 49.20323 -2.25251 919 ft 144 kts 82°
2026-01-18 05:17 49.20580 -2.22245 563 ft 144 kts 80°
2026-01-18 05:17 49.20818 -2.19330 284 ft 101 kts 80°
2026-01-18 05:18 49.20865 -2.18703 283 ft 27 kts 90°
2026-01-18 05:18 49.20771 -2.18409 281 ft 15 kts 218°
2026-01-18 05:19 49.20729 -2.18541 281 ft 13 kts 261°
2026-01-18 05:19 49.20693 -2.18945 282 ft 12 kts 262°
2026-01-18 05:20 49.20681 -2.19090 282 ft 16 kts 264°
2026-01-18 05:20 49.20687 -2.19600 282 ft 11 kts 245°
2026-01-18 05:21 49.20613 -2.19755 279 ft 3 kts 262°
2026-01-18 05:21 49.20578 -2.19809 279 ft 1 kts 181°
2026-01-18 05:22 49.20569 -2.19808 279 ft 0 kts 175°
2026-01-18 05:23 49.20559 -2.19807 279 ft 0 kts 173°
2026-01-18 05:24 49.20553 -2.19806 279 ft 0 kts 173°
2026-01-18 05:25 49.20547 -2.19805 279 ft 0 kts 175°